• In Netherlands
  • List of Countries
  • For 7 days
  • Water Temperature
  • Satellite Maps
  • Weather Map
  • Weather Widgets
  • user-avatar
    Login

    Hourly Weather Concord

    Today, 23 November, Thursday

    Time Temperature Precipitation Wind Pressure Humidity
    00:00 -3°C° 0 mm 4 mps 752 mmHg 82%
    01:00 -4°C° 0 mm 4 mps 752 mmHg 81%
    02:00 -4°C° 0 mm 4 mps 752 mmHg 81%
    03:00 -4°C° 0 mm 4 mps 752 mmHg 81%
    04:00 -5°C° 0 mm 3 mps 753 mmHg 80%
    05:00 -5°C° 0 mm 3 mps 753 mmHg 79%
    06:00 -5°C° 0 mm 3 mps 753 mmHg 77%
    07:00 -5°C° 0 mm 3 mps 753 mmHg 75%
    08:00 -4°C° 0 mm 3 mps 753 mmHg 67%
    09:00 -1°C° 0 mm 3 mps 753 mmHg 59%
    10:00 0°C° 0 mm 3 mps 753 mmHg 52%
    11:00 +1°C° 0 mm 3 mps 753 mmHg 48%
    12:00 +2°C° 0 mm 3 mps 752 mmHg 44%
    13:00 +4°C° 0 mm 2 mps 752 mmHg 40%
    14:00 +3°C° 0 mm 2 mps 752 mmHg 44%
    15:00 +2°C° 0 mm 2 mps 751 mmHg 48%
    16:00 +3°C° 0 mm 1 mps 751 mmHg 52%
    17:00 +2°C° 0 mm 1 mps 751 mmHg 54%
    18:00 +1°C° 0 mm 1 mps 751 mmHg 57%
    19:00 0°C° 0 mm 1 mps 752 mmHg 59%
    20:00 0°C° 0 mm 1 mps 752 mmHg 59%
    21:00 0°C° 0 mm 1 mps 752 mmHg 60%
    22:00 0°C° 0 mm 1 mps 752 mmHg 60%
    23:00 0°C° 0 mm 1 mps 752 mmHg 63%

    Tomorrow, 24 November, Friday

    Time Temperature Precipitation Wind Pressure Humidity
    00:00 0°C° 0 mm 1 mps 752 mmHg 65%
    01:00 0°C° 0 mm 1 mps 752 mmHg 67%
    02:00 0°C° 0 mm 1 mps 752 mmHg 70%
    03:00 0°C° 0 mm 1 mps 752 mmHg 72%
    04:00 0°C° 0 mm 1 mps 752 mmHg 75%
    05:00 0°C° 0 mm 1 mps 752 mmHg 77%
    06:00 0°C° 0 mm 1 mps 752 mmHg 79%
    07:00 0°C° 0 mm 1 mps 752 mmHg 81%
    08:00 +2°C° 0 mm 1 mps 753 mmHg 73%
    09:00 +4°C° 0 mm 1 mps 753 mmHg 65%
    10:00 +6°C° 0 mm 1 mps 753 mmHg 57%
    11:00 +6°C° 0 mm 2 mps 752 mmHg 55%
    12:00 +7°C° 0 mm 2 mps 752 mmHg 53%
    13:00 +8°C° 0 mm 2 mps 751 mmHg 51%
    14:00 +7°C° 0 mm 2 mps 751 mmHg 57%
    15:00 +6°C° 0 mm 2 mps 751 mmHg 63%
    16:00 +5°C° 0 mm 2 mps 751 mmHg 69%
    17:00 +4°C° 0 mm 2 mps 751 mmHg 73%
    18:00 +3°C° 0 mm 2 mps 751 mmHg 77%
    19:00 +2°C° 0 mm 2 mps 751 mmHg 81%
    20:00 +2°C° 0 mm 2 mps 750 mmHg 81%
    21:00 +2°C° 0 mm 2 mps 750 mmHg 81%
    22:00 +1°C° 0 mm 2 mps 750 mmHg 81%
    23:00 +1°C° 0 mm 2 mps 750 mmHg 79%

    Day after tomorrow, 25 November, Saturday

    Time Temperature Precipitation Wind Pressure Humidity
    00:00 +1°C° 0 mm 2 mps 749 mmHg 77%
    01:00 +1°C° 0 mm 2 mps 749 mmHg 75%
    02:00 +1°C° 0 mm 2 mps 748 mmHg 74%
    03:00 +1°C° 0 mm 2 mps 748 mmHg 72%
    04:00 +1°C° 0 mm 2 mps 747 mmHg 71%
    05:00 +2°C° 0 mm 2 mps 747 mmHg 71%
    06:00 +1°C° 0 mm 3 mps 747 mmHg 72%
    07:00 +1°C° 0 mm 3 mps 747 mmHg 72%
    08:00 +3°C° 0 mm 3 mps 746 mmHg 65%
    09:00 +5°C° 0 mm 3 mps 746 mmHg 59%
    10:00 +7°C° 0 mm 4 mps 746 mmHg 53%
    11:00 +8°C° 0 mm 4 mps 745 mmHg 53%
    12:00 +10°C° 0 mm 4 mps 745 mmHg 53%
    13:00 +11°C° 0 mm 3 mps 744 mmHg 53%
    14:00 +9°C° 0.2 mm 3 mps 744 mmHg 62%
    15:00 +8°C° 0.2 mm 2 mps 744 mmHg 71%
    16:00 +8°C° 0.2 mm 1 mps 744 mmHg 80%
    17:00 +7°C° 0.3 mm 1 mps 744 mmHg 84%
    18:00 +7°C° 0.3 mm 1 mps 744 mmHg 87%
    19:00 +6°C° 0.3 mm 1 mps 744 mmHg 91%
    20:00 +6°C° 0.2 mm 1 mps 744 mmHg 92%
    21:00 +6°C° 0.2 mm 1 mps 744 mmHg 93%
    22:00 +5°C° 0.2 mm 1 mps 744 mmHg 95%
    23:00 +5°C° 0.1 mm 1 mps 744 mmHg 95%

    26 November, Sunday

    Time Temperature Precipitation Wind Pressure Humidity
    00:00 +5°C° 0.1 mm 1 mps 743 mmHg 95%
    01:00 +5°C° 0.1 mm 1 mps 743 mmHg 95%
    02:00 +5°C° 0 mm 1 mps 743 mmHg 95%
    03:00 +5°C° 0 mm 1 mps 743 mmHg 95%
    04:00 +4°C° 0 mm 1 mps 743 mmHg 94%
    05:00 +3°C° 0 mm 2 mps 743 mmHg 94%
    06:00 +3°C° 0 mm 2 mps 743 mmHg 94%
    07:00 +3°C° 0 mm 2 mps 744 mmHg 94%
    08:00 +3°C° 0.2 mm 3 mps 744 mmHg 90%
    09:00 +3°C° 0.2 mm 4 mps 744 mmHg 86%
    10:00 +2°C° 0.2 mm 5 mps 745 mmHg 82%
    11:00 +1°C° 0.3 mm 6 mps 745 mmHg 78%
    12:00 +1°C° 0.3 mm 6 mps 745 mmHg 74%
    13:00 -1°C° 0.3 mm 6 mps 745 mmHg 70%
    14:00 -1°C° 0 mm 6 mps 746 mmHg 68%
    15:00 -2°C° 0 mm 6 mps 746 mmHg 67%
    16:00 -3°C° 0 mm 6 mps 747 mmHg 66%
    17:00 -4°C° 0 mm 6 mps 748 mmHg 66%
    18:00 -4°C° 0 mm 6 mps 749 mmHg 67%
    19:00 -5°C° 0 mm 5 mps 749 mmHg 67%
    20:00 -5°C° 0 mm 5 mps 750 mmHg 67%
    21:00 -6°C° 0 mm 5 mps 750 mmHg 67%
    22:00 -6°C° 0 mm 5 mps 750 mmHg 67%
    23:00 -5°C° 0 mm 4 mps 750 mmHg 67%

    27 November, Monday

    Time Temperature Precipitation Wind Pressure Humidity
    00:00 -5°C° 0 mm 4 mps 750 mmHg 66%
    01:00 -5°C° 0 mm 3 mps 750 mmHg 66%
    02:00 -5°C° 0 mm 3 mps 750 mmHg 65%
    03:00 -5°C° 0 mm 3 mps 750 mmHg 64%
    04:00 -4°C° 0 mm 3 mps 751 mmHg 62%
    05:00 -4°C° 0 mm 3 mps 751 mmHg 64%
    06:00 -2°C° 0 mm 3 mps 751 mmHg 67%
    07:00 -2°C° 0 mm 3 mps 751 mmHg 69%
    08:00 -1°C° 0 mm 4 mps 752 mmHg 65%
    09:00 +1°C° 0 mm 4 mps 752 mmHg 61%
    10:00 +2°C° 0 mm 5 mps 752 mmHg 57%
    11:00 +3°C° 0 mm 5 mps 752 mmHg 55%
    12:00 +5°C° 0 mm 5 mps 752 mmHg 53%
    13:00 +5°C° 0 mm 5 mps 752 mmHg 52%
    14:00 +5°C° 0 mm 4 mps 752 mmHg 58%
    15:00 +4°C° 0 mm 3 mps 752 mmHg 63%
    16:00 +4°C° 0 mm 2 mps 752 mmHg 69%
    17:00 +3°C° 0 mm 2 mps 753 mmHg 75%
    18:00 +3°C° 0 mm 1 mps 753 mmHg 80%
    19:00 +2°C° 0 mm 1 mps 754 mmHg 86%
    20:00 +2°C° 0 mm 1 mps 754 mmHg 87%
    21:00 +2°C° 0 mm 1 mps 754 mmHg 89%
    22:00 +2°C° 0 mm 1 mps 754 mmHg 90%
    23:00 +2°C° 0 mm 1 mps 754 mmHg 90%

    28 November, Tuesday

    Time Temperature Precipitation Wind Pressure Humidity
    00:00 +2°C° 0 mm 1 mps 754 mmHg 91%
    01:00 +2°C° 0 mm 1 mps 754 mmHg 91%
    02:00 +2°C° 0 mm 1 mps 753 mmHg 90%
    03:00 +2°C° 0 mm 1 mps 753 mmHg 89%
    04:00 +2°C° 0 mm 1 mps 753 mmHg 88%
    05:00 +2°C° 0 mm 1 mps 753 mmHg 85%
    06:00 +1°C° 0 mm 2 mps 753 mmHg 82%
    07:00 +2°C° 0 mm 2 mps 753 mmHg 79%
    08:00 +3°C° 0 mm 3 mps 752 mmHg 68%
    09:00 +7°C° 0 mm 3 mps 752 mmHg 57%
    10:00 +8°C° 0 mm 4 mps 752 mmHg 45%
    11:00 +10°C° 0 mm 4 mps 751 mmHg 44%
    12:00 +12°C° 0 mm 4 mps 750 mmHg 42%
    13:00 +13°C° 0 mm 4 mps 750 mmHg 41%
    14:00 +11°C° 0 mm 4 mps 749 mmHg 47%
    15:00 +10°C° 0 mm 3 mps 749 mmHg 53%
    16:00 +8°C° 0 mm 3 mps 749 mmHg 59%
    17:00 +8°C° 0 mm 3 mps 750 mmHg 62%
    18:00 +7°C° 0 mm 3 mps 750 mmHg 66%
    19:00 +5°C° 0 mm 3 mps 750 mmHg 69%
    20:00 +5°C° 0 mm 3 mps 750 mmHg 70%
    21:00 +5°C° 0 mm 3 mps 750 mmHg 70%
    22:00 +5°C° 0 mm 3 mps 750 mmHg 71%
    23:00 +5°C° 0 mm 3 mps 749 mmHg 72%
    Show more